| time (UTC) | temp C | wind direction | speed KPH | gust KPH | rain 1hr cm | rain 24hr cm | rain mn cm | humidity % | barometer mb |
| 20260508025354 | 13 | 132 | 0.0 | 3.2 | 0.00 | 0.00 | 0.00 | 80 | 1013.4 |
| 20260508024340 | 13 | 132 | 0.0 | 0.0 | 0.00 | 0.00 | 0.00 | 80 | 1013.4 |
| 20260508023343 | 13 | 132 | 0.0 | 0.0 | 0.00 | 0.00 | 0.00 | 80 | 1013.6 |
| 20260508022342 | 13 | 132 | 0.0 | 3.2 | 0.00 | 0.00 | 0.00 | 79 | 1013.5 |
| 20260508021350 | 13 | 132 | 1.6 | 4.8 | 0.00 | 0.00 | 0.00 | 79 | 1013.6 |
| 20260508020353 | 13 | 132 | 1.6 | 4.8 | 0.00 | 0.00 | 0.00 | 78 | 1013.7 |
| 20260508015349 | 13 | 132 | 0.0 | 1.6 | 0.00 | 0.00 | 0.00 | 77 | 1013.8 |
| 20260508014351 | 13 | 133 | 0.0 | 1.6 | 0.00 | 0.00 | 0.00 | 77 | 1013.9 |
| 20260508013337 | 13 | 133 | 0.0 | 1.6 | 0.00 | 0.00 | 0.00 | 77 | 1014.0 |
| 20260508012356 | 13 | 132 | 0.0 | 0.0 | 0.00 | 0.00 | 0.00 | 76 | 1014.0 |
| 20260508011358 | 13 | 132 | 0.0 | 3.2 | 0.00 | 0.00 | 0.00 | 76 | 1014.1 |
| 20260508010338 | 13 | 133 | 1.6 | 3.2 | 0.00 | 0.00 | 0.00 | 76 | 1014.2 |
| 20260508005355 | 13 | 133 | 0.0 | 0.0 | 0.00 | 0.00 | 0.00 | 76 | 1014.2 |
| 20260508004354 | 14 | 133 | 0.0 | 3.2 | 0.00 | 0.00 | 0.00 | 75 | 1014.2 |
| 20260508003356 | 14 | 133 | 0.0 | 1.6 | 0.00 | 0.00 | 0.00 | 74 | 1014.3 |
| 20260508002354 | 14 | 133 | 1.6 | 4.8 | 0.00 | 0.00 | 0.00 | 74 | 1014.3 |
| 20260508001340 | 14 | 133 | 0.0 | 0.0 | 0.00 | 0.00 | 0.00 | 74 | 1014.5 |
| 20260508000335 | 14 | 133 | 0.0 | 0.0 | 0.00 | 0.00 | 0.00 | 73 | 1014.6 |
| 20260507235359 | 14 | 133 | 0.0 | 0.0 | 0.00 | 0.00 | 0.00 | 73 | 1014.6 |
| 20260507234359 | 14 | 133 | 0.0 | 0.0 | 0.00 | 0.00 | 0.00 | 73 | 1014.7 |
| 20260507233342 | 14 | 133 | 0.0 | 0.0 | 0.00 | 0.00 | 0.00 | 72 | 1014.8 |
| 20260507232357 | 14 | 133 | 0.0 | 0.0 | 0.00 | 0.00 | 0.00 | 71 | 1014.7 |
| 20260507231337 | 14 | 133 | 0.0 | 1.6 | 0.00 | 0.00 | 0.00 | 71 | 1014.9 |
| 20260507230342 | 14 | 133 | 0.0 | 4.8 | 0.00 | 0.00 | 0.00 | 71 | 1015.0 |
| 20260507225338 | 14 | 133 | 3.2 | 4.8 | 0.00 | 0.00 | 0.00 | 71 | 1015.0 |
| 20260507224342 | 15 | 133 | 0.0 | 1.6 | 0.00 | 0.00 | 0.00 | 71 | 1015.2 |
| 20260507223348 | 15 | 133 | 0.0 | 3.2 | 0.00 | 0.00 | 0.00 | 72 | 1015.3 |
| 20260507222343 | 15 | 133 | 0.0 | 0.0 | 0.00 | 0.00 | 0.00 | 72 | 1015.3 |
| 20260507221350 | 15 | 133 | 0.0 | 3.2 | 0.00 | 0.00 | 0.00 | 72 | 1015.2 |
| 20260507220337 | 15 | 133 | 0.0 | 3.2 | 0.00 | 0.00 | 0.00 | 73 | 1015.2 |
| 20260507215358 | 15 | 134 | 0.0 | 1.6 | 0.00 | 0.00 | 0.00 | 72 | 1015.2 |
| 20260507214352 | 15 | 134 | 0.0 | 3.2 | 0.00 | 0.00 | 0.00 | 72 | 1015.2 |
| 20260507213356 | 15 | 134 | 4.8 | 6.4 | 0.00 | 0.00 | 0.00 | 72 | 1015.3 |
| 20260507212356 | 15 | 131 | 0.0 | 0.0 | 0.00 | 0.00 | 0.00 | 73 | 1015.2 |
| 20260507211357 | 15 | 131 | 0.0 | 3.2 | 0.00 | 0.00 | 0.00 | 73 | 1015.3 |
| 20260507210337 | 15 | 131 | 3.2 | 6.4 | 0.00 | 0.00 | 0.00 | 73 | 1015.2 |
| 20260507205338 | 16 | 131 | 4.8 | 8.0 | 0.00 | 0.00 | 0.00 | 72 | 1015.3 |
| 20260507204339 | 16 | 104 | 0.0 | 0.0 | 0.00 | 0.00 | 0.00 | 71 | 1015.1 |
| 20260507203340 | 16 | 104 | 0.0 | 0.0 | 0.00 | 0.00 | 0.00 | 71 | 1015.2 |
| 20260507202341 | 16 | 104 | 0.0 | 3.2 | 0.00 | 0.00 | 0.00 | 70 | 1015.2 |
| 20260507201355 | 16 | 105 | 0.0 | 3.2 | 0.00 | 0.00 | 0.00 | 68 | 1015.0 |
| 20260507200357 | 16 | 105 | 3.2 | 6.4 | 0.00 | 0.00 | 0.00 | 68 | 1014.8 |
| 20260507195353 | 16 | 109 | 1.6 | 4.8 | 0.00 | 0.00 | 0.00 | 67 | 1014.7 |
| 20260507194355 | 16 | 109 | 0.0 | 6.4 | 0.00 | 0.00 | 0.00 | 66 | 1014.6 |
| 20260507193353 | 17 | 111 | 3.2 | 6.4 | 0.00 | 0.00 | 0.00 | 65 | 1014.4 |
| 20260507192356 | 17 | 133 | 0.0 | 4.8 | 0.00 | 0.00 | 0.00 | 64 | 1014.3 |
| 20260507191357 | 17 | 123 | 0.0 | 3.2 | 0.00 | 0.00 | 0.00 | 63 | 1014.2 |
| 20260507190340 | 17 | 118 | 1.6 | 4.8 | 0.00 | 0.00 | 0.00 | 62 | 1014.0 |
| 20260507185359 | 17 | 118 | 0.0 | 4.8 | 0.00 | 0.00 | 0.00 | 61 | 1014.0 |
| 20260507184337 | 17 | 118 | 0.0 | 8.0 | 0.00 | 0.00 | 0.00 | 62 | 1013.9 |
| 20260507183341 | 17 | 137 | 1.6 | 6.4 | 0.00 | 0.00 | 0.00 | 63 | 1013.8 |
| 20260507182357 | 17 | 153 | 3.2 | 11.3 | 0.00 | 0.00 | 0.00 | 63 | 1013.5 |
| 20260507181340 | 17 | 139 | 1.6 | 11.3 | 0.00 | 0.00 | 0.00 | 64 | 1013.6 |
| 20260507180344 | 17 | 141 | 4.8 | 11.3 | 0.00 | 0.00 | 0.00 | 64 | 1013.4 |
| 20260507175345 | 17 | 100 | 6.4 | 16.1 | 0.00 | 0.00 | 0.00 | 64 | 1013.4 |
| 20260507174351 | 17 | 109 | 4.8 | 14.5 | 0.00 | 0.00 | 0.00 | 63 | 1013.4 |
| 20260507173356 | 18 | 168 | 6.4 | 11.3 | 0.00 | 0.00 | 0.00 | 62 | 1013.3 |
| 20260507172350 | 17 | 141 | 4.8 | 12.9 | 0.00 | 0.00 | 0.00 | 61 | 1013.3 |
| 20260507171357 | 17 | 85 | 8.0 | 12.9 | 0.00 | 0.00 | 0.00 | 62 | 1013.2 |
| 20260507170337 | 17 | 123 | 4.8 | 14.5 | 0.00 | 0.00 | 0.00 | 62 | 1013.1 |
| 20260507165357 | 17 | 140 | 6.4 | 14.5 | 0.00 | 0.00 | 0.00 | 62 | 1013.1 |
| 20260507164358 | 18 | 109 | 6.4 | 11.3 | 0.00 | 0.00 | 0.00 | 61 | 1013.1 |
| 20260507163343 | 18 | 113 | 8.0 | 12.9 | 0.00 | 0.00 | 0.00 | 61 | 1013.0 |
| 20260507162355 | 17 | 113 | 9.7 | 16.1 | 0.00 | 0.00 | 0.00 | 59 | 1012.9 |
| 20260507161339 | 18 | 107 | 3.2 | 19.3 | 0.00 | 0.00 | 0.00 | 59 | 1012.9 |
| 20260507160355 | 17 | 163 | 3.2 | 19.3 | 0.00 | 0.00 | 0.00 | 59 | 1012.9 |
| 20260507155352 | 17 | 127 | 9.7 | 20.9 | 0.00 | 0.00 | 0.00 | 60 | 1013.0 |
| 20260507154337 | 17 | 111 | 4.8 | 22.5 | 0.00 | 0.00 | 0.00 | 59 | 1013.1 |
| 20260507153345 | 18 | 81 | 8.0 | 20.9 | 0.00 | 0.00 | 0.00 | 58 | 1013.1 |
| 20260507152342 | 18 | 89 | 8.0 | 17.7 | 0.00 | 0.00 | 0.00 | 55 | 1013.2 |
| 20260507151350 | 18 | 114 | 3.2 | 17.7 | 0.00 | 0.00 | 0.00 | 56 | 1013.0 |
| 20260507150355 | 18 | 155 | 11.3 | 19.3 | 0.00 | 0.00 | 0.00 | 55 | 1013.2 |
| 20260507145352 | 18 | 106 | 3.2 | 14.5 | 0.00 | 0.00 | 0.00 | 54 | 1013.3 |
| 20260507144337 | 18 | 121 | 4.8 | 12.9 | 0.00 | 0.00 | 0.00 | 54 | 1013.1 |
| 20260507143339 | 18 | 130 | 3.2 | 17.7 | 0.00 | 0.00 | 0.00 | 54 | 1013.3 |
| 20260507142338 | 18 | 127 | 8.0 | 16.1 | 0.00 | 0.00 | 0.00 | 53 | 1013.3 |
| 20260507141357 | 18 | 118 | 8.0 | 17.7 | 0.00 | 0.00 | 0.00 | 53 | 1013.4 |
| 20260507140355 | 19 | 128 | 8.0 | 16.1 | 0.00 | 0.00 | 0.00 | 51 | 1013.3 |
| 20260507135348 | 18 | 134 | 12.9 | 24.1 | 0.00 | 0.00 | 0.00 | 51 | 1013.5 |
| 20260507134350 | 18 | 125 | 9.7 | 17.7 | 0.00 | 0.00 | 0.00 | 52 | 1013.8 |
| 20260507133339 | 18 | 112 | 8.0 | 19.3 | 0.00 | 0.00 | 0.00 | 51 | 1013.8 |
| 20260507132337 | 18 | 125 | 12.9 | 25.7 | 0.00 | 0.00 | 0.00 | 52 | 1014.0 |
| 20260507131337 | 18 | 83 | 14.5 | 25.7 | 0.00 | 0.00 | 0.00 | 53 | 1014.0 |
| 20260507130340 | 18 | 116 | 14.5 | 24.1 | 0.00 | 0.00 | 0.00 | 52 | 1014.0 |
| 20260507125354 | 18 | 241 | 4.8 | 22.5 | 0.00 | 0.00 | 0.00 | 53 | 1014.1 |
| 20260507124357 | 18 | 190 | 11.3 | 19.3 | 0.00 | 0.00 | 0.00 | 53 | 1014.2 |
| 20260507123340 | 18 | 76 | 6.4 | 24.1 | 0.00 | 0.00 | 0.00 | 55 | 1014.4 |
| 20260507122336 | 18 | 122 | 12.9 | 22.5 | 0.00 | 0.00 | 0.00 | 56 | 1014.4 |
| 20260507121340 | 18 | 130 | 14.5 | 24.1 | 0.00 | 0.00 | 0.00 | 55 | 1014.5 |
| 20260507120342 | 18 | 137 | 12.9 | 25.7 | 0.00 | 0.00 | 0.00 | 56 | 1014.4 |
| 20260507115342 | 18 | 156 | 9.7 | 25.7 | 0.00 | 0.00 | 0.00 | 57 | 1014.5 |
| 20260507114348 | 18 | 123 | 6.4 | 25.7 | 0.00 | 0.00 | 0.00 | 56 | 1014.4 |
| 20260507113358 | 19 | 180 | 6.4 | 17.7 | 0.00 | 0.00 | 0.00 | 56 | 1014.4 |
| 20260507112353 | 19 | 207 | 4.8 | 16.1 | 0.00 | 0.00 | 0.00 | 57 | 1014.4 |
| 20260507111354 | 18 | 121 | 6.4 | 19.3 | 0.00 | 0.00 | 0.00 | 58 | 1014.6 |
| 20260507110335 | 18 | 138 | 6.4 | 20.9 | 0.00 | 0.00 | 0.00 | 59 | 1014.7 |
| 20260507105355 | 18 | 122 | 8.0 | 17.7 | 0.00 | 0.00 | 0.00 | 58 | 1014.8 |
| 20260507104337 | 18 | 220 | 4.8 | 19.3 | 0.00 | 0.00 | 0.00 | 59 | 1014.9 |
| 20260507103339 | 18 | 199 | 9.7 | 19.3 | 0.00 | 0.00 | 0.00 | 58 | 1015.1 |
| 20260507102357 | 18 | 118 | 6.4 | 17.7 | 0.00 | 0.00 | 0.00 | 58 | 1015.1 |
| 20260507101358 | 18 | 142 | 4.8 | 19.3 | 0.00 | 0.00 | 0.00 | 59 | 1015.2 |
| 20260507100354 | 18 | 131 | 6.4 | 16.1 | 0.00 | 0.00 | 0.00 | 60 | 1015.2 |
| 20260507095353 | 17 | 164 | 3.2 | 14.5 | 0.00 | 0.00 | 0.00 | 61 | 1015.1 |
| 20260507094354 | 18 | 132 | 4.8 | 12.9 | 0.00 | 0.00 | 0.00 | 61 | 1015.3 |
| 20260507093340 | 18 | 114 | 0.0 | 14.5 | 0.00 | 0.00 | 0.00 | 61 | 1015.3 |
| 20260507092356 | 17 | 123 | 0.0 | 9.7 | 0.00 | 0.00 | 0.00 | 63 | 1015.3 |
| 20260507091341 | 17 | 111 | 6.4 | 12.9 | 0.00 | 0.00 | 0.00 | 62 | 1015.3 |
| 20260507090346 | 18 | 113 | 4.8 | 14.5 | 0.00 | 0.00 | 0.00 | 61 | 1015.1 |
| 20260507085342 | 18 | 137 | 3.2 | 8.0 | 0.00 | 0.00 | 0.00 | 62 | 1015.1 |
| 20260507084349 | 18 | 98 | 1.6 | 8.0 | 0.00 | 0.00 | 0.00 | 64 | 1015.2 |
| 20260507083357 | 17 | 0 | 0.0 | 6.4 | 0.00 | 0.00 | 0.00 | 66 | 1015.2 |
| 20260507082354 | 17 | 0 | 4.8 | 9.7 | 0.00 | 0.00 | 0.00 | 67 | 1015.2 |
| 20260507081351 | 16 | 327 | 3.2 | 8.0 | 0.00 | 0.00 | 0.00 | 69 | 1015.3 |
| 20260507080356 | 16 | 336 | 3.2 | 8.0 | 0.00 | 0.00 | 0.00 | 70 | 1015.4 |
| 20260507075337 | 15 | 336 | 1.6 | 6.4 | 0.00 | 0.00 | 0.00 | 71 | 1015.6 |
| 20260507074344 | 15 | 338 | 4.8 | 6.4 | 0.00 | 0.00 | 0.00 | 71 | 1015.5 |
| 20260507073335 | 15 | 354 | 3.2 | 6.4 | 0.00 | 0.00 | 0.00 | 72 | 1015.5 |
| 20260507072353 | 15 | 0 | 1.6 | 6.4 | 0.00 | 0.00 | 0.00 | 73 | 1015.5 |
| 20260507071337 | 15 | 2 | 4.8 | 8.0 | 0.00 | 0.00 | 0.00 | 73 | 1015.5 |
| 20260507070339 | 14 | 49 | 1.6 | 3.2 | 0.00 | 0.00 | 0.00 | 74 | 1015.4 |
| 20260507065356 | 14 | 49 | 3.2 | 4.8 | 0.00 | 0.00 | 0.00 | 74 | 1015.2 |
| 20260507064340 | 14 | 49 | 0.0 | 6.4 | 0.00 | 0.00 | 0.00 | 76 | 1015.3 |
| 20260507063342 | 13 | 50 | 3.2 | 8.0 | 0.00 | 0.00 | 0.00 | 77 | 1015.0 |
| 20260507062339 | 13 | 62 | 3.2 | 8.0 | 0.00 | 0.00 | 0.00 | 79 | 1015.0 |
| 20260507061340 | 13 | 68 | 0.0 | 8.0 | 0.00 | 0.00 | 0.00 | 81 | 1015.1 |
| 20260507060344 | 13 | 46 | 3.2 | 6.4 | 0.00 | 0.00 | 0.00 | 83 | 1014.9 |
| 20260507055346 | 13 | 40 | 0.0 | 4.8 | 0.00 | 0.00 | 0.00 | 84 | 1015.0 |
| 20260507054351 | 12 | 39 | 0.0 | 3.2 | 0.00 | 0.00 | 0.00 | 84 | 1014.8 |
| 20260507053339 | 12 | 40 | 0.0 | 3.2 | 0.00 | 0.00 | 0.00 | 85 | 1014.9 |
| 20260507052337 | 12 | 39 | 0.0 | 0.0 | 0.00 | 0.00 | 0.00 | 85 | 1014.7 |
| 20260507051343 | 12 | 39 | 0.0 | 0.0 | 0.00 | 0.00 | 0.00 | 85 | 1014.5 |
| 20260507050345 | 12 | 39 | 0.0 | 0.0 | 0.00 | 0.00 | 0.00 | 84 | 1014.5 |
| 20260507045340 | 12 | 39 | 0.0 | 0.0 | 0.00 | 0.00 | 0.00 | 84 | 1014.3 |
| 20260507044338 | 12 | 48 | 0.0 | 0.0 | 0.00 | 0.00 | 0.00 | 84 | 1014.4 |
| 20260507043341 | 12 | 48 | 0.0 | 0.0 | 0.00 | 0.00 | 0.00 | 83 | 1014.5 |
| 20260507042339 | 12 | 48 | 0.0 | 0.0 | 0.00 | 0.00 | 0.00 | 83 | 1014.3 |
| 20260507041343 | 12 | 48 | 0.0 | 0.0 | 0.00 | 0.00 | 0.00 | 83 | 1014.4 |
| 20260507040349 | 12 | 48 | 0.0 | 0.0 | 0.00 | 0.00 | 0.00 | 82 | 1014.3 |
| 20260507035347 | 12 | 48 | 0.0 | 0.0 | 0.00 | 0.00 | 0.00 | 83 | 1014.4 |
| 20260507034350 | 12 | 48 | 0.0 | 0.0 | 0.00 | 0.00 | 0.00 | 82 | 1014.3 |
| 20260507033357 | 12 | 48 | 0.0 | 0.0 | 0.00 | 0.00 | 0.00 | 81 | 1014.4 |
| 20260507032353 | 13 | 48 | 0.0 | 0.0 | 0.00 | 0.00 | 0.00 | 82 | 1014.4 |
| 20260507031337 | 13 | 48 | 0.0 | 0.0 | 0.00 | 0.00 | 0.00 | 82 | 1014.4 |
| 20260507030338 | 13 | 48 | 0.0 | 0.0 | 0.00 | 0.00 | 0.00 | 81 | 1014.4 |